Regional Weather Roundup
Issued by NWS Portland, ME

Current Version | Previous Version | Text Only | Print | Product List | Glossary Off
Versions: 1 2 3 4 5 6 7 8 9 10 11 12 13 14 15 16 17 18 19 20 21 22 23 24 25 26 27 28 29 30 31 32 33 34 35 36 37 38 39 40 41 42 43 44 45 46 47 48 49 50
000 ASUS41 KGYX 281710 RWRGYX WEATHER ROUNDUP FOR MAINE AND NEW HAMPSHIRE NATIONAL WEATHER SERVICE GRAY ME 100 PM EDT TUE MAR 28 2017 MEZ002-005-006-010-012-015-018-020-021-024-026-027-029-281800- MAINE CITY SKY/WX TMP DP RH WIND PRES REMARKS PORTLAND CLOUDY 36 32 85 E5 30.05S SANFORD CLOUDY 37 34 89 NE3 30.03F BAR HARBOR CLOUDY 36 31 82 E5 30.05F WISCASSET CLOUDY 37 34 89 CALM 30.05F ROCKLAND CLOUDY 35 33 92 E6 30.05F FRYEBURG CLOUDY 36 33 89 E5 30.01F LEWISTONAUBURN LGT RAIN 37 33 85 S5 30.03F AUGUSTA CLOUDY 33 30 88 SE5 30.03F WATERVILLE CLOUDY 34 32 92 CALM 30.01F FOG BANGOR CLOUDY 33 32 96 S6 30.04F GREENVILLE N/A 29 29 100 VRB6 29.93F MILLINOCKET CLOUDY 32 31 96 CALM 30.03F HOULTON CLOUDY 30 28 92 SE8 30.02F PRESQUE ISLE MIX PCPN 30 26 85 SE9 30.02F FRENCHVILLE SNOW 27 24 89 SE10 29.98F VSB 1/4 WCI 17 CARIBOU MIX PCPN 30 26 85 VRB6 30.00F FOG $$ NHZ002-005-008-009-011-012-014-281800- NEW HAMPSHIRE CITY SKY/WX TMP DP RH WIND PRES REMARKS PORTSMOUTH CLOUDY 38 34 85 SE5 30.01F ROCHESTER CLOUDY 37 32 82 CALM 30.01F NASHUA CLOUDY 39 35 86 NE5 30.02F MANCHESTER CLOUDY 39 33 79 E3 30.00F CONCORD CLOUDY 38 35 89 S3 30.01F LACONIA CLOUDY 36 34 92 CALM 30.01F PLYMOUTH CLOUDY 35 34 94 E3 30.01S FOG BERLIN CLOUDY 42 32 67 CALM 29.93F WHITEFIELD CLOUDY 45 35 68 W6 29.92F JAFFREY CLOUDY 39 36 89 CALM 29.97S KEENE CLOUDY 43 38 82 CALM 29.97F LEBANON CLOUDY 40 36 86 NE8 29.96F MT WASHINGTON FOG 36 36 100 W33 N/A VSB 0 $$ VTZ005-007-008-281800- VERMONT CITY SKY/WX TMP DP RH WIND PRES REMARKS ST JOHNSBURY N/A 42 38 85 MISG 29.92F MONTPELIER PTSUNNY 43 39 86 S12 29.94 BURLINGTON CLOUDY 51 44 77 S8 29.88S $$ MAZ007-012-024-CTZ003-RIZ002-NYZ038-NYZ072-281800- SOUTHERN NEW ENGLAND AND NY CITY SKY/WX TMP DP RH WIND PRES REMARKS BOSTON CLOUDY 40 38 93 NE9 30.01F WORCESTER FOG 37 35 92 NE7 29.96F VSB<1/4 NANTUCKET CLOUDY 46 40 79 NE13 29.97F PROVIDENCE CLOUDY 43 38 82 NE6 30.00F HARTFORD CLOUDY 44 40 85 CALM 29.98S ALBANY LGT RAIN 49 43 80 S7 29.93F NEW YORK CITY LGT RAIN 43 40 89 NE13 29.92F FOG $$ ANZ081-ANZ082-ANZ150-NHZ014-MEZ023>029-281800- COASTAL MARINE OBSERVATIONS STATION/POSITION TIME TEMP WIND PRES WAVE AIR SEA DIR/SP/G HT/PER (UTC) (F) (DEG/KT/KT) (MB) (FT/S) MOUNT DESERT ROC 1700 35 1017.6R MATINICUS ROCK 1600 35 60/ 8/ 8 1017.4S ISLE OF SHOALS 1600 36 20/ 7/ 8 1017.2F $$ .............KEY.............. WCI - WIND CHILL TC - TEMPERATURE IN CELSIUS VSB - VISIBILITY IN MILES HX - HEAT INDEX FAIR- INDICATES FEW OR NO CLOUDS BELOW 12,000 FT, WITH NO SIGNIFICANT WEATHER AND/OR OBSTRUCTIONS TO VISIBILITY.

USA.gov is the U.S. government's official web portal to all federal, state and local government web resources and services.